Tel Aviv, Israel

3:33 AM IDT on August 16, 2018 (GMT +0300)
Ben Gurion

Weather History for LLBG - May, 2018

Change the Weather History Date:

Thursday, May 17, 2018

  Actual Average Record
Temperature  
Mean Temperature 82 °F -  
Max Temperature 101 °F 81 °F 101 °F (2018)
Min Temperature 62 °F 64 °F 57 °F (1997)
Cooling Degree Days 16    
Growing Degree Days 32 (Base 50)    
Moisture  
Dew Point 50 °F    
Average Humidity 41    
Maximum Humidity 88    
Minimum Humidity 4    
Precipitation  
Precipitation 0.00 in - - ()
Sea Level Pressure  
Sea Level Pressure 29.83 in    
Wind  
Wind Speed 6 mph ()    
Max Wind Speed 20 mph    
Max Gust Speed -    
Visibility 5.8 miles    
Events      
Averages and records for this station are not official NWS values.
T = Trace of Precipitation, MM = Missing Value Source: Averaged Metar Reports

Daily Weather History Graph

Daily Weather History Graph

Search for Another Location

Airport or City:

Astronomy

May. 17, 2018 Rise Set
Actual Time 5:41 AM IDT 7:31 PM IDT
Civil Twilight 5:15 AM IDT 7:59 PM IDT
Nautical Twilight 4:42 AM IDT 8:31 PM IDT
Astronomical Twilight 4:07 AM IDT 9:06 PM IDT
Moon 7:26 AM IDT (5/17) 9:42 PM IDT (5/17)
Length of Visible Light 14h 44m
Length of Day
13h 50m
Waxing Crescent, 5% of the Moon is Illuminated
May 17
Waxing Crescent
May 22
First Quarter
May 29
Full
Jun 6
Last Quarter
Jun 13
New

Hourly Weather History & Observations

Time (IDT) Temp. Heat Index Dew Point Humidity Pressure Visibility Wind Dir Wind Speed Gust Speed Precip Events Conditions
12:00 AM 71 °F - 61 °F 63% 29.91 in 6 mi 2.3 mph - -  
12:20 AM 69.8 °F - 62.6 °F 78% 29.89 in - Variable 3.5 mph - N/A   Clear
12:50 AM 69.8 °F - 60.8 °F 73% 29.89 in - Variable 3.5 mph - N/A   Clear
1:20 AM 69.8 °F - 62.6 °F 78% 29.89 in - North 4.6 mph - N/A   Clear
1:50 AM 69.8 °F - 64.4 °F 83% 29.89 in - Variable 3.5 mph - N/A   Clear
2:20 AM 68.0 °F - 62.6 °F 83% 29.89 in - Variable 2.3 mph - N/A   Clear
2:50 AM 68.0 °F - 62.6 °F 83% 29.89 in - Variable 3.5 mph - N/A   Clear
3:00 AM 67 °F - 62 °F 80% 29.89 in 6 mi 3.5 mph - -  
3:20 AM 66.2 °F - 62.6 °F 88% 29.89 in - Variable 2.3 mph - N/A   Clear
3:50 AM 64.4 °F - 60.8 °F 88% 29.86 in - Variable 3.5 mph - N/A   Clear
4:20 AM 66.2 °F - 59.0 °F 78% 29.86 in - SE 4.6 mph - N/A   Clear
4:50 AM 66.2 °F - 59.0 °F 78% 29.86 in - Variable 3.5 mph - N/A   Clear
5:20 AM 64.4 °F - 57.2 °F 77% 29.86 in 6.2 mi SSE 4.6 mph - N/A   Partly Cloudy
5:50 AM 64.4 °F - 59.0 °F 83% 29.86 in 5.0 mi SE 4.6 mph - N/A   Partly Cloudy
6:00 AM 63 °F - 58 °F 80% 29.88 in 5 mi 3.5 mph - -   Mist
6:20 AM 64.4 °F - 59.0 °F 83% 29.86 in 5.6 mi SE 5.8 mph - N/A   Unknown
6:50 AM 66.2 °F - 59.0 °F 78% 29.89 in 5.6 mi SE 4.6 mph - N/A   Unknown
7:20 AM 68.0 °F - 59.0 °F 73% 29.89 in 5.6 mi Variable 2.3 mph - N/A   Unknown
7:50 AM 69.8 °F - 59.0 °F 68% 29.89 in 5.6 mi Variable 2.3 mph - N/A   Unknown
8:20 AM 73.4 °F - 60.8 °F 65% 29.89 in - Variable 1.2 mph - N/A   Clear
8:50 AM 75.2 °F - 60.8 °F 61% 29.89 in - Variable 2.3 mph - N/A   Clear
9:00 AM 76 °F - 60 °F 49% 29.88 in 6 mi 1.2 mph - -  
9:20 AM 80.6 °F 81.5 °F 60.8 °F 51% 29.86 in - Variable 2.3 mph - N/A   Clear
9:50 AM 86.0 °F 85.4 °F 59.0 °F 40% 29.86 in - Variable 3.5 mph - N/A   Clear
10:20 AM 89.6 °F 87.7 °F 55.4 °F 31% 29.86 in - Variable 3.5 mph - N/A   Clear
10:50 AM 93.2 °F - 50.0 °F 23% 29.86 in - Variable 3.5 mph - N/A   Clear
11:20 AM 98.6 °F - 39.2 °F 13% 29.86 in - ESE 15.0 mph - N/A   Clear
11:50 AM 98.6 °F - 37.4 °F 12% 29.83 in - East 13.8 mph - N/A   Clear
12:00 PM 99 °F - 38 °F 6% 29.84 in 6 mi ESE 16.1 mph - -   Clear
12:20 PM 98.6 °F - 35.6 °F 11% 29.83 in - SE 15.0 mph - N/A   Clear
12:50 PM 98.6 °F - 35.6 °F 11% 29.83 in - ESE 10.4 mph - N/A   Clear
1:20 PM 100.4 °F - 35.6 °F 11% 29.83 in - East 8.1 mph - N/A   Clear
1:50 PM 100.4 °F - 35.6 °F 11% 29.80 in - ESE 6.9 mph - N/A   Clear
2:20 PM 100.4 °F - 33.8 °F 10% 29.80 in - East 6.9 mph - N/A   Clear
2:50 PM 102.2 °F - 33.8 °F 9% 29.80 in - SSE 8.1 mph - N/A   Clear
3:00 PM 101 °F - 34 °F 4% 29.80 in 6 mi SSE 8.1 mph - -   Clear
3:20 PM 98.6 °F - 39.2 °F 13% 29.80 in - SE 6.9 mph - N/A   Clear
3:50 PM 98.6 °F - 51.8 °F 21% 29.80 in - ESE 4.6 mph - N/A   Clear
4:20 PM 98.6 °F - 42.8 °F 15% 29.77 in - NNW 12.7 mph - N/A   Clear
4:50 PM 96.8 °F - 48.2 °F 19% 29.77 in - NW 15.0 mph - N/A   Clear
5:20 PM 96.8 °F - 46.4 °F 18% 29.77 in - NW 16.1 mph - N/A   Clear
5:50 PM 95.0 °F - 44.6 °F 18% 29.77 in - NNW 16.1 mph - N/A   Clear
6:00 PM 95 °F - 44 °F 10% 29.76 in 6 mi NNW 16.1 mph - -   Clear
6:20 PM 95.0 °F - 42.8 °F 16% 29.77 in - North 19.6 mph - N/A   Clear
6:50 PM 93.2 °F - 42.8 °F 17% 29.77 in - North 16.1 mph - N/A   Clear
7:20 PM 91.4 °F - 42.8 °F 18% 29.77 in - North 16.1 mph - N/A   Clear
7:50 PM 89.6 °F - 44.6 °F 21% 29.77 in - North 16.1 mph - N/A   Clear
8:20 PM 89.6 °F - 41.0 °F 18% 29.77 in - North 13.8 mph - N/A   Clear
8:50 PM 87.8 °F - 41.0 °F 19% 29.77 in - North 11.5 mph - N/A   Clear
9:00 PM 87 °F - 41 °F 11% 29.78 in 6 mi NNE 9.2 mph - -  
9:20 PM 86.0 °F - 41.0 °F 20% 29.80 in - NNE 10.4 mph - N/A   Clear
9:50 PM 86.0 °F - 41.0 °F 20% 29.80 in - North 8.1 mph - N/A   Clear
10:20 PM 84.2 °F - 41.0 °F 22% 29.80 in - NNE 5.8 mph - N/A   Clear
10:50 PM 84.2 °F - 41.0 °F 22% 29.80 in - NNE 5.8 mph - N/A   Clear
11:20 PM 80.6 °F - 42.8 °F 26% 29.80 in - North 10.4 mph - N/A   Clear
11:50 PM 80.6 °F - 42.8 °F 26% 29.80 in - North 10.4 mph - N/A   Clear